Marisat 102

operational
NORAD ID: 9478 Int'l Des: 1976-101 Owner: COM Country: US
HEO

Über Marisat 102

Beschreibung wird geladen...

Live-Position

3D-Globus wird geladen...

Nächste Überflüge

Höhenverlauf

Altitude vs Time

uPlot chart will show altitude changes over time

Zweizeiliger Elementsatz

1 09478U 76101A 26062.00821983 -.00000145 00000-0 00000-0 0 9991
2 09478 6.0483 310.4313 0107019 349.4834 256.4410 0.97591128122323
Epoch: 3. März 2026 • Age: 21 hours

Aktueller Status

Höhe 36979.0 km
Geschwindigkeit 3.02 km/s
Subsatellitenpunkt -1.28°S, 23.69°E
Typ other

Große Konstellationen

Loading constellations...